CAPE
5 5 4 8 3 0 0 0 0 0 16 2 0 0 0 0 70 81 78 25 55 40 0 0 6 15 0 8 51 64 54 35 12
11 8 8 8 5 3 0 0 0 1 4 13 10 3 0 0 0 93 131 67 56 39 59 62 91 116 121 0 0 73 42 54 16
10 8 6 6 8 3 0 0 0 0 0 6 12 1 1 0 0 16 89 151 54 81 99 172 154 191 157 136 18 1 84 69 54
11 8 6 2 0 0 0 0 0 0 1 6 5 6 2 0 0 0 7 16 14 36 129 148 170 180 139 151 89 66 3 52 67
0 0 0 0 0 0 0 0 0 0 0 0 2 4 0 0 0 0 0 0 0 0 59 74 165 149 185 176 35 89 67 7 15
0 0 2 4 8 7 3 5 6 1 0 0 0 0 0 0 0 0 0 0 0 0 0 19 24 97 167 172 216 112 121 53 7
5 4 3 8 6 7 2 1 3 3 0 0 0 0 0 0 0 0 0 0 0 0 0 0 0 12 142 233 188 272 241 105 41
2 0 0 4 5 3 0 0 0 0 0 0 0 0 0 0 0 0 0 0 0 0 0 0 0 9 40 110 307 285 349 317 79
8 3 2 0 4 2 4 0 0 0 0 0 0 0 0 0 0 0 0 0 0 0 0 0 0 0 0 25 58 157 250 333 368
11 7 7 4 0 0 0 2 2 0 0 0 0 0 0 0 0 0 0 0 0 0 0 0 0 0 0 0 0 0 1 43 188
8 12 10 9 6 1 0 0 0 3 0 0 0 0 0 0 0 0 0 0 0 0 0 0 0 0 0 0 0 0 0 0 2
6 6 8 8 10 5 0 0 0 5 6 0 0 0 0 0 0 0 0 0 0 0 0 0 0 0 0 0 0 0 0 0 0
9 6 8 12 14 9 5 1 0 0 1 4 0 0 0 0 0 0 0 0 0 0 0 0 0 0 0 0 0 0 0 0 0
17 5 7 15 9 7 8 8 4 0 0 0 7 1 0 0 0 0 0 0 0 0 0 0 0 0 0 0 0 0 0 0 0
27 8 10 5 6 7 11 5 3 2 0 0 0 4 2 0 0 0 0 0 0 0 0 0 0 0 0 0 0 0 0 0 0
9 7 8 10 5 3 7 9 6 3 0 0 0 0 2 0 0 0 0 0 3 1 0 0 0 0 0 0 0 0 0 0 2
3 4 8 12 14 3 2 5 7 2 3 3 2 3 1 5 0 0 0 0 0 1 0 0 0 0 0 0 0 0 0 0 18
6 2 3 3 5 6 10 5 2 5 1 6 4 6 2 1 1 0 0 0 0 3 3 0 0 0 0 0 0 0 0 0 0
16 9 4 2 3 7 6 7 2 4 3 2 5 0 0 0 1 4 0 0 0 0 7 1 0 0 0 0 0 0 0 0 0
13 19 8 2 4 11 16 1 5 5 4 3 6 4 0 0 0 0 3 0 0 0 9 12 1 0 0 0 0 0 0 0 13
CIN
-1 -1 -0 -1 -1 -0 -0 -0 -0 -0 -0 -1 -0 -0 -0 -0 -0 -1 -4 -1 -3 -12 -0 -0 -1 -0 -0 -0 -1 -2 -1 -0 -0
-1 -1 -1 -1 -1 -1 -0 -0 -0 -0 -0 -1 -1 -1 -0 -0 -4 -6 -8 -6 -5 -5 -6 -4 -0 -0 -0 -0 -0 -1 -2 -0 -1
-1 -1 -1 -1 -0 -1 -0 -0 -0 -0 -0 -0 -0 -1 -0 -0 -0 -3 -1 -25 -10 -2 -0 -0 -0 -0 -0 -0 -0 -0 -0 -0 -0
-1 -1 -1 -1 -1 -0 -0 -0 -0 -0 -0 -1 -0 -5 -0 -0 -0 -1 -2 -8 -31 -22 -6 -0 -0 -0 -0 -0 -2 -0 -0 -0 -0
-0 -0 -0 -0 -0 -0 -0 -0 -0 -0 -0 -0 -1 -1 -0 -0 -0 -0 -0 -0 -0 -0 -10 -6 -0 -0 -0 -1 -9 -3 -0 -0 -0
-1 -0 -0 -1 -1 -1 -1 -1 -1 -1 -0 -0 -0 -0 -0 -0 -0 -0 -0 -0 -0 -0 -0 -4 -14 -6 -0 -0 -0 -6 -2 -1 -1
-1 -1 -1 -1 -1 -1 -1 -0 -1 -1 -0 -0 -0 -0 -0 -0 -0 -0 -0 -0 -0 -0 -0 -0 -0 -19 -1 -0 -0 -0 -2 -4 -2
-1 -0 -0 -1 -0 -1 -0 -0 -0 -0 -0 -0 -0 -0 -0 -0 -0 -0 -0 -0 -0 -0 -0 -0 -0 -10 -10 -18 -0 -0 -0 -1 -10
-1 -1 -4 -0 -1 -2 -1 -0 -0 -0 -0 -0 -0 -0 -0 -0 -0 -0 -0 -0 -0 -0 -0 -0 -0 -0 -0 -42 -28 -4 -0 -0 -0
-0 -1 -1 -1 -1 -0 -4 -2 -1 -0 -0 -0 -0 -0 -0 -0 -0 -0 -0 -0 -0 -0 -0 -0 -0 -0 -0 -0 -0 -0 -0 -6 -2
-1 -0 -0 -0 -1 -5 -0 -0 -3 -2 -0 -0 -0 -0 -0 -0 -0 -0 -0 -0 -0 -0 -0 -0 -0 -0 -0 -0 -0 -0 -0 -0 -0
-0 -0 -0 -0 -0 -0 -0 -0 -0 -2 -1 -0 -0 -0 -0 -0 -0 -0 -0 -0 -0 -0 -0 -0 -0 -0 -0 -0 -0 -0 -0 -0 -0
-0 -0 -0 -1 -0 -0 -1 -6 -0 -0 -3 -1 -1 -0 -0 -0 -0 -0 -0 -0 -0 -0 -0 -0 -0 -0 -0 -0 -0 -0 -0 -0 -0
-0 -0 -4 -0 -0 -0 -2 -0 -0 -4 -0 -0 -2 -1 -0 -0 -0 -0 -0 -0 -0 -0 -0 -0 -0 -0 -0 -0 -0 -0 -0 -0 -0
-0 -0 -0 -4 -0 -0 -1 -1 -1 -1 -0 -0 -0 -6 -1 -0 -0 -0 -0 -0 -0 -0 -0 -0 -0 -0 -0 -0 -0 -0 -0 -0 -0
-0 -0 -3 -1 -1 -0 -0 -0 -0 -0 -0 -0 -0 -0 -3 -1 -0 -0 -0 -0 -1 -1 -0 -0 -0 -0 -0 -0 -0 -0 -0 -0 -0
-0 -0 -2 -3 -0 -1 -0 -0 -0 -0 -0 -0 -1 -1 -1 -1 -0 -0 -0 -0 -0 -1 -0 -0 -0 -0 -0 -0 -0 -0 -0 -0 -1
-1 -0 -0 -0 -0 -0 -1 -0 -0 -5 -0 -0 -0 -0 -0 -3 -2 -0 -0 -0 -0 -1 -2 -0 -0 -0 -0 -0 -0 -0 -0 -0 -0
-0 -1 -0 -0 -0 -0 -0 -2 -0 -0 -0 -0 -2 -0 -0 -0 -1 -0 -0 -0 -0 -0 -1 -2 -0 -0 -0 -0 -0 -0 -0 -0 -0
-0 -0 -1 -0 -0 -0 -0 -0 -0 -0 -0 -0 -0 -1 -0 -1 -0 -0 -1 -2 -0 -0 -1 -1 -1 -0 -0 -0 -0 -0 -0 -1 -9
Wind_Speed
45 45 44 42 42 41 41 41 40 39 38 37 36 35 33 31 29 29 30 27 22 19 20 23 24 23 20 20 20 19 13 12 13
47 46 45 44 44 42 43 43 42 41 40 38 37 38 36 34 33 29 30 30 28 21 22 23 25 25 21 21 21 19 15 15 16
46 45 44 45 44 45 45 44 44 42 42 41 40 39 36 35 33 33 31 30 28 26 24 25 26 27 25 23 22 22 21 20 20
43 45 45 44 44 45 46 45 45 43 42 41 41 39 39 36 36 35 31 30 27 26 26 28 28 28 28 28 25 23 24 24 23
38 37 38 41 41 43 44 44 45 44 44 44 42 41 41 38 37 37 34 29 30 30 29 29 30 31 30 29 27 24 23 24 25
37 37 39 40 41 42 43 43 43 44 44 45 45 44 41 39 36 35 33 33 33 32 32 31 30 31 32 32 30 26 24 23 23
39 38 36 35 36 37 38 39 41 42 42 42 42 40 40 38 37 36 32 33 34 34 32 31 31 31 31 32 31 29 27 25 25
38 38 37 36 36 35 36 37 36 36 37 38 38 38 38 37 37 37 33 33 34 34 33 32 30 29 29 30 32 31 29 28 26
37 37 38 37 36 35 34 36 38 39 38 38 38 38 39 39 37 36 32 33 34 34 32 32 30 28 28 27 26 27 30 32 30
37 36 36 36 37 36 36 36 36 37 38 39 39 39 38 39 39 37 34 34 35 33 31 29 29 28 26 25 25 25 26 27 30
37 37 36 35 34 35 36 37 37 36 37 38 38 39 38 37 37 37 35 33 35 35 33 31 30 29 27 26 25 26 27 29 28
39 39 38 35 34 34 35 36 37 38 36 37 37 37 37 37 37 37 35 31 32 34 34 33 32 31 30 28 28 28 28 28 30
39 39 38 38 36 34 33 33 36 37 37 36 36 36 36 35 36 36 34 33 29 30 33 34 34 33 32 31 31 30 30 29 29
37 38 39 37 36 35 33 32 32 35 37 37 36 37 36 34 35 35 35 32 31 29 28 30 32 33 34 34 34 34 33 31 31
39 38 37 36 34 33 32 33 31 32 34 36 37 36 35 33 33 33 33 32 32 31 30 25 30 33 35 36 37 36 34 33 33
40 38 38 35 33 32 32 32 32 31 30 33 35 36 36 35 32 32 32 33 31 30 30 33 30 28 33 36 38 38 38 38 36
40 39 37 36 34 31 30 30 31 30 29 29 31 33 34 33 35 32 32 33 32 31 30 29 29 31 31 33 35 39 40 39 39
36 37 36 35 35 32 30 29 28 30 28 28 28 29 31 31 29 31 32 33 33 32 30 30 29 30 30 31 33 37 39 40 40
37 35 36 35 33 32 30 27 27 25 28 28 28 31 32 28 30 28 28 31 32 33 31 31 30 30 30 32 32 32 36 39 41
36 37 36 34 31 30 28 29 28 21 20 23 26 27 30 32 32 31 27 26 29 31 31 30 31 30 30 30 31 32 34 36 37
Wind_Direction
298 296 295 294 292 292 291 290 288 286 287 283 283 283 283 283 285 280 278 281 284 283 282 279 279 283 281 283 285 284 278 283 287
298 296 294 292 291 290 290 288 286 284 283 283 283 279 279 278 277 283 280 277 276 281 280 278 279 280 277 279 280 282 277 277 282
300 297 294 292 290 288 287 286 284 283 280 279 280 281 277 276 276 275 278 277 278 277 277 277 276 276 276 276 276 275 274 275 277
303 298 295 294 292 290 286 284 281 280 280 278 277 278 275 275 273 274 274 275 276 277 278 275 275 275 275 274 274 274 272 272 274
312 306 302 298 295 292 289 284 280 278 277 276 275 276 275 273 271 271 272 272 272 274 276 274 274 273 273 274 275 273 273 272 272
317 311 306 302 298 294 290 286 281 278 276 275 273 272 270 270 269 269 269 271 271 271 273 272 273 273 272 272 273 273 272 273 271
316 313 310 306 303 298 291 287 282 278 275 275 272 269 266 266 267 267 268 269 270 269 270 273 272 273 273 272 271 272 270 271 271
312 311 312 310 304 302 294 286 281 277 275 272 270 269 267 264 265 266 265 267 269 269 267 269 273 273 274 273 270 270 269 268 271
315 312 306 307 307 303 299 288 281 275 273 271 269 268 266 265 265 265 266 267 267 268 268 266 268 272 273 276 273 272 270 267 267
320 316 314 311 306 303 297 292 285 279 274 270 267 266 266 265 264 265 264 264 264 265 266 266 267 270 271 273 272 272 274 274 270
320 317 315 313 309 304 297 290 285 282 276 272 269 266 265 264 265 264 264 264 262 262 263 263 265 267 268 269 272 271 272 271 273
316 314 312 311 309 303 299 289 284 280 276 273 272 270 266 264 264 264 264 264 261 260 261 262 263 265 266 268 270 270 270 272 268
321 317 312 308 304 304 298 294 285 280 277 272 270 267 266 265 264 264 264 263 264 260 260 261 262 263 264 266 267 269 267 268 270
328 322 317 313 306 300 297 293 289 281 276 273 268 267 265 265 264 262 262 262 264 265 262 262 262 263 265 265 265 266 268 266 267
329 325 321 316 311 303 297 291 288 285 279 274 273 270 267 268 267 265 264 262 261 265 267 267 267 264 264 264 265 265 264 264 266
332 327 321 319 314 306 300 293 285 283 282 278 273 271 269 267 266 265 266 264 262 263 265 266 270 269 267 267 264 264 263 263 262
336 329 323 316 312 309 304 299 286 281 280 279 278 272 270 266 264 265 265 264 264 264 264 266 269 270 272 270 267 264 262 263 259
337 334 328 317 309 307 302 301 294 282 280 277 277 275 269 274 266 265 265 265 265 265 264 266 268 271 272 273 272 267 263 262 261
342 338 330 316 308 303 301 300 296 291 279 279 277 273 273 274 272 270 269 266 265 264 264 266 267 270 272 274 274 272 265 262 261
349 333 328 314 303 300 301 298 295 294 290 283 281 279 274 271 271 272 273 274 268 266 265 265 268 270 272 275 275 272 268 263 263